TimeEST,TemperatureF,Dew PointF,Humidity,Sea Level PressureIn,VisibilityMPH,Wind Direction,Wind SpeedMPH,Gust SpeedMPH,PrecipitationIn,Events,Conditions,WindDirDegrees,DateUTC
12:15 AM,57.2,57.2,100,29.98,5.0,Calm,Calm,-,N/A,,Overcast,0,2012-12-25 05:15:00
12:35 AM,57.2,57.2,100,29.97,1.8,Calm,Calm,-,N/A,,Overcast,0,2012-12-25 05:35:00
12:55 AM,57.2,57.2,100,29.97,1.2,SSW,3.5,-,N/A,,Overcast,200,2012-12-25 05:55:00
1:15 AM,57.2,57.2,100,29.97,1.0,Calm,Calm,-,N/A,,Overcast,0,2012-12-25 06:15:00
1:35 AM,57.2,57.2,100,29.97,4.0,SSW,3.5,-,N/A,,Overcast,200,2012-12-25 06:35:00
1:55 AM,57.2,57.2,100,29.97,1.0,SSW,3.5,-,N/A,,Overcast,210,2012-12-25 06:55:00
2:15 AM,57.2,57.2,100,29.97,0.5,Calm,Calm,-,N/A,Fog,Fog,0,2012-12-25 07:15:00
2:35 AM,57.2,57.2,100,29.97,0.2,Calm,Calm,-,N/A,Fog,Fog,0,2012-12-25 07:35:00
2:55 AM,57.2,55.4,94,29.97,0.2,Calm,Calm,-,N/A,Fog,Fog,0,2012-12-25 07:55:00
3:15 AM,57.2,55.4,94,29.97,0.2,Calm,Calm,-,N/A,Fog,Fog,0,2012-12-25 08:15:00
3:35 AM,57.2,55.4,94,29.98,0.2,Calm,Calm,-,N/A,Fog,Fog,0,2012-12-25 08:35:00
3:55 AM,57.2,55.4,94,29.97,0.2,Calm,Calm,-,N/A,Fog,Fog,0,2012-12-25 08:55:00
4:15 AM,57.2,55.4,94,29.97,0.2,Calm,Calm,-,N/A,Fog,Fog,0,2012-12-25 09:15:00
4:35 AM,57.2,55.4,94,29.97,0.2,Calm,Calm,-,N/A,Fog,Fog,0,2012-12-25 09:35:00
4:55 AM,57.2,55.4,94,29.97,0.5,Calm,Calm,-,N/A,Fog,Fog,0,2012-12-25 09:55:00
5:15 AM,57.2,55.4,94,29.98,0.5,Calm,Calm,-,N/A,Fog,Fog,0,2012-12-25 10:15:00
5:35 AM,57.2,57.2,100,29.98,0.2,Calm,Calm,-,N/A,Fog,Fog,0,2012-12-25 10:35:00
5:55 AM,57.2,55.4,94,29.98,0.2,Calm,Calm,-,N/A,Fog,Fog,0,2012-12-25 10:55:00
6:15 AM,57.2,57.2,100,29.99,0.2,Calm,Calm,-,N/A,Fog,Fog,0,2012-12-25 11:15:00
6:35 AM,57.2,57.2,100,29.99,0.2,Calm,Calm,-,N/A,Fog,Fog,0,2012-12-25 11:35:00
6:55 AM,57.2,57.2,100,30.00,0.2,Calm,Calm,-,N/A,Fog,Fog,0,2012-12-25 11:55:00
7:15 AM,57.2,57.2,100,30.00,0.5,Calm,Calm,-,N/A,Fog,Fog,0,2012-12-25 12:15:00
7:35 AM,57.2,57.2,100,30.01,0.5,Calm,Calm,-,N/A,Fog,Fog,0,2012-12-25 12:35:00
7:55 AM,57.2,57.2,100,30.01,0.2,ENE,3.5,-,N/A,Fog,Fog,70,2012-12-25 12:55:00
8:15 AM,57.2,57.2,100,30.01,0.2,Calm,Calm,-,N/A,Fog,Fog,0,2012-12-25 13:15:00
8:35 AM,57.2,57.2,100,30.01,0.2,East,4.6,-,N/A,Fog,Fog,100,2012-12-25 13:35:00
8:55 AM,59.0,59.0,100,30.01,0.2,ESE,3.5,-,N/A,Fog,Fog,120,2012-12-25 13:55:00
9:15 AM,59.0,59.0,100,30.01,0.2,ESE,5.8,-,N/A,Fog,Fog,110,2012-12-25 14:15:00
9:35 AM,59.0,59.0,100,30.01,0.2,East,4.6,-,N/A,Fog,Fog,90,2012-12-25 14:35:00
9:55 AM,59.0,59.0,100,30.00,0.2,ESE,3.5,-,N/A,Fog,Fog,110,2012-12-25 14:55:00
10:15 AM,59.0,59.0,100,30.00,0.5,East,3.5,-,N/A,Fog,Fog,100,2012-12-25 15:15:00
10:35 AM,59.0,59.0,100,30.01,0.5,SE,4.6,-,N/A,Fog,Fog,140,2012-12-25 15:35:00
10:55 AM,59.0,59.0,100,30.01,1.8,SE,3.5,-,N/A,,Overcast,130,2012-12-25 15:55:00
11:15 AM,59.0,59.0,100,30.00,1.5,ESE,3.5,-,N/A,,Overcast,120,2012-12-25 16:15:00
11:35 AM,59.0,59.0,100,30.00,1.2,East,4.6,-,N/A,,Overcast,90,2012-12-25 16:35:00
11:55 AM,59.0,59.0,100,30.00,1.2,ESE,4.6,-,N/A,,Drizzle,110,2012-12-25 16:55:00
12:15 PM,60.8,59.0,94,29.99,1.5,Calm,Calm,-,N/A,,Drizzle,0,2012-12-25 17:15:00
12:35 PM,60.8,59.0,94,29.99,5.0,East,3.5,-,N/A,,Light Drizzle,100,2012-12-25 17:35:00
12:55 PM,60.8,60.8,100,29.97,7.0,East,3.5,-,N/A,,Overcast,80,2012-12-25 17:55:00
1:15 PM,60.8,60.8,100,29.97,7.0,SE,3.5,-,N/A,Rain,Rain,130,2012-12-25 18:15:00
1:35 PM,60.8,60.8,100,29.95,5.0,Calm,Calm,-,N/A,,Drizzle,0,2012-12-25 18:35:00
1:55 PM,60.8,60.8,100,29.94,5.0,ESE,3.5,-,N/A,,Overcast,110,2012-12-25 18:55:00
2:35 PM,60.8,60.8,100,29.93,2.0,East,5.8,-,N/A,,Overcast,100,2012-12-25 19:35:00
2:55 PM,60.8,60.8,100,29.92,2.0,East,9.2,-,N/A,,Overcast,100,2012-12-25 19:55:00
3:15 PM,60.8,60.8,100,29.91,2.0,East,8.1,-,N/A,,Overcast,100,2012-12-25 20:15:00
3:35 PM,60.8,60.8,100,29.91,1.5,ESE,9.2,-,N/A,,Drizzle,110,2012-12-25 20:35:00
3:55 PM,60.8,60.8,100,29.92,2.0,ESE,4.6,-,N/A,Rain,Rain,110,2012-12-25 20:55:00
4:15 PM,60.8,60.8,100,29.93,3.0,SE,3.5,-,N/A,Rain-Thunderstorm,Heavy Thunderstorms and Rain,140,2012-12-25 21:15:00
4:35 PM,60.8,60.8,100,29.93,2.0,ESE,4.6,-,N/A,Rain-Thunderstorm,Heavy Thunderstorms and Rain,110,2012-12-25 21:35:00
4:55 PM,60.8,60.8,100,29.92,3.0,ESE,6.9,-,N/A,Rain,Rain,110,2012-12-25 21:55:00
5:15 PM,60.8,60.8,100,29.92,10.0,SE,5.8,-,N/A,Rain,Light Rain,140,2012-12-25 22:15:00
5:35 PM,60.8,60.8,100,29.93,10.0,SE,4.6,-,N/A,Rain,Light Rain,130,2012-12-25 22:35:00
5:55 PM,60.8,60.8,100,29.93,10.0,SE,3.5,-,N/A,,Overcast,130,2012-12-25 22:55:00
6:15 PM,60.8,60.8,100,29.93,10.0,SE,3.5,-,N/A,,Overcast,140,2012-12-25 23:15:00
6:35 PM,60.8,59.0,94,29.92,10.0,SE,3.5,-,N/A,,Overcast,140,2012-12-25 23:35:00
6:55 PM,60.8,59.0,94,29.91,10.0,ESE,5.8,-,N/A,,Scattered Clouds,120,2012-12-25 23:55:00
7:15 PM,60.8,59.0,94,29.89,10.0,ESE,11.5,16.1,N/A,,Mostly Cloudy,110,2012-12-26 00:15:00
7:35 PM,60.8,60.8,100,29.90,3.0,ESE,4.6,-,N/A,,Overcast,120,2012-12-26 00:35:00
7:55 PM,60.8,60.8,100,29.89,2.0,SE,6.9,-,N/A,,Overcast,140,2012-12-26 00:55:00
8:15 PM,60.8,60.8,100,29.90,4.0,SE,5.8,-,N/A,,Overcast,140,2012-12-26 01:15:00
8:35 PM,60.8,60.8,100,29.91,5.0,SE,4.6,-,N/A,,Overcast,140,2012-12-26 01:35:00
8:55 PM,60.8,60.8,100,29.91,5.0,SE,3.5,-,N/A,,Overcast,130,2012-12-26 01:55:00
9:15 PM,60.8,60.8,100,29.92,5.0,Calm,Calm,-,N/A,,Overcast,0,2012-12-26 02:15:00
9:35 PM,60.8,59.0,94,29.90,5.0,Calm,Calm,-,N/A,,Overcast,0,2012-12-26 02:35:00
9:55 PM,60.8,59.0,94,29.90,7.0,SE,4.6,-,N/A,,Mostly Cloudy,130,2012-12-26 02:55:00
10:15 PM,59.0,59.0,100,29.88,7.0,ESE,4.6,-,N/A,,Mostly Cloudy,120,2012-12-26 03:15:00
11:15 PM,60.8,59.0,94,29.86,10.0,SE,6.9,-,N/A,,Overcast,140,2012-12-26 04:15:00
11:35 PM,60.8,59.0,94,29.85,10.0,SSE,8.1,-,N/A,,Overcast,150,2012-12-26 04:35:00
11:55 PM,60.8,59.0,94,29.84,10.0,SSE,6.9,-,N/A,,Overcast,150,2012-12-26 04:55:00